| time (UTC) | temp C | wind direction | speed KPH | gust KPH | rain 1hr cm | rain 24hr cm | rain mn cm | humidity % | barometer mb |
| 20260507020232 | 13 | 260 | 12.9 | 0.0 | 0.00 | 0.00 | 0.00 | 71 | 1008.0 |
| 20260507013217 | 13 | 250 | 12.9 | 0.0 | 0.00 | 0.00 | 0.00 | 71 | 1008.0 |
| 20260507012206 | 13 | 250 | 14.5 | 0.0 | 0.00 | 0.00 | 0.00 | 71 | |
| 20260507010233 | 13 | 260 | 16.1 | 0.0 | 0.00 | 0.00 | 0.00 | 71 | 1007.0 |
| 20260507003216 | 15 | 230 | 16.1 | 0.0 | 0.00 | 0.00 | 0.00 | 72 | 1006.0 |
| 20260507002106 | 15 | 210 | 14.5 | 0.0 | 0.00 | 0.00 | 0.00 | 67 | |
| 20260507000227 | 15 | 220 | 16.1 | 0.0 | 0.00 | 0.00 | 0.00 | 67 | 1006.0 |
| 20260506233217 | 15 | 170 | 11.3 | 0.0 | 0.00 | 0.00 | 0.00 | 67 | 1006.0 |
| 20260506232107 | 15 | 170 | 11.3 | 0.0 | 0.00 | 0.00 | 0.00 | 67 | |
| 20260506230232 | 15 | 150 | 12.9 | 0.0 | 0.00 | 0.00 | 0.00 | 67 | 1006.0 |
| 20260506223216 | 16 | 160 | 14.5 | 0.0 | 0.00 | 0.00 | 0.00 | 63 | 1006.0 |
| 20260506222338 | 17 | 180 | 14.5 | 0.0 | 0.00 | 0.00 | 0.00 | 59 | |
| 20260506220238 | 17 | 160 | 16.1 | 0.0 | 0.00 | 0.00 | 0.00 | 59 | 1005.0 |
| 20260506213224 | 17 | 160 | 12.9 | 0.0 | 0.00 | 0.00 | 0.00 | 59 | 1005.0 |
| 20260506212121 | 17 | 150 | 19.3 | 0.0 | 0.00 | 0.00 | 0.00 | 55 | |
| 20260506210226 | 17 | 150 | 12.9 | 0.0 | 0.00 | 0.00 | 0.00 | 55 | 1005.0 |
| 20260506203215 | 17 | 140 | 19.3 | 0.0 | 0.00 | 0.00 | 0.00 | 55 | 1005.0 |
| 20260506202139 | 18 | 150 | 25.7 | 0.0 | 0.00 | 0.00 | 0.00 | 52 | |
| 20260506200231 | 18 | 140 | 22.5 | 0.0 | 0.00 | 0.00 | 0.00 | 52 | 1004.0 |
| 20260506193224 | 18 | 140 | 20.9 | 0.0 | 0.00 | 0.00 | 0.00 | 52 | 1004.0 |
| 20260506192333 | 20 | 150 | 22.5 | 0.0 | 0.00 | 0.00 | 0.00 | 45 | |
| 20260506190246 | 20 | 140 | 22.5 | 0.0 | 0.00 | 0.00 | 0.00 | 45 | 1004.0 |
| 20260506183238 | 20 | 150 | 22.5 | 0.0 | 0.00 | 0.00 | 0.00 | 45 | 1004.0 |
| 20260506182211 | 21 | 160 | 29.0 | 0.0 | 0.00 | 0.00 | 0.00 | 43 | |
| 20260506180240 | 21 | 150 | 25.7 | 0.0 | 0.00 | 0.00 | 0.00 | 43 | 1003.0 |
| 20260506173909 | 21 | 150 | 27.4 | 46.7 | 0.00 | 0.00 | 0.00 | 43 | 1003.0 |
| 20260506173231 | 22 | 150 | 29.0 | 0.0 | 0.00 | 0.00 | 0.00 | 40 | 1004.0 |
| 20260506172136 | 22 | 160 | 32.2 | 0.0 | 0.00 | 0.00 | 0.00 | 40 | |
| 20260506170226 | 22 | 150 | 29.0 | 0.0 | 0.00 | 0.00 | 0.00 | 40 | 1004.0 |
| 20260506163231 | 22 | 150 | 29.0 | 0.0 | 0.00 | 0.00 | 0.00 | 40 | 1004.0 |
| 20260506162338 | 23 | 160 | 25.7 | 0.0 | 0.00 | 0.00 | 0.00 | 36 | |
| 20260506160240 | 23 | 150 | 29.0 | 0.0 | 0.00 | 0.00 | 0.00 | 36 | 1004.0 |
| 20260506153231 | 23 | 140 | 27.4 | 0.0 | 0.00 | 0.00 | 0.00 | 36 | 1005.0 |
| 20260506152154 | 22 | 150 | 32.2 | 0.0 | 0.00 | 0.00 | 0.00 | 40 | |
| 20260506150239 | 22 | 150 | 25.7 | 0.0 | 0.00 | 0.00 | 0.00 | 38 | 1005.0 |
| 20260506143231 | 22 | 140 | 29.0 | 0.0 | 0.00 | 0.00 | 0.00 | 40 | 1005.0 |
| 20260506142122 | 22 | 150 | 29.0 | 0.0 | 0.00 | 0.00 | 0.00 | 43 | |
| 20260506141403 | 23 | 150 | 27.4 | 0.0 | 0.00 | 0.00 | 0.00 | 38 | 1005.0 |
| 20260506140232 | 22 | 150 | 27.4 | 0.0 | 0.00 | 0.00 | 0.00 | 43 | 1006.0 |
| 20260506133231 | 22 | 150 | 27.4 | 0.0 | 0.00 | 0.00 | 0.00 | 43 | 1006.0 |
| 20260506132122 | 22 | 120 | 25.7 | 0.0 | 0.00 | 0.00 | 0.00 | 46 | |
| 20260506130227 | 22 | 120 | 22.5 | 0.0 | 0.00 | 0.00 | 0.00 | 43 | 1006.0 |
| 20260506123223 | 22 | 140 | 24.1 | 0.0 | 0.00 | 0.00 | 0.00 | 40 | 1007.0 |
| 20260506122121 | 22 | 180 | 19.3 | 0.0 | 0.00 | 0.00 | 0.00 | 40 | |
| 20260506120232 | 22 | 180 | 16.1 | 0.0 | 0.00 | 0.00 | 0.00 | 38 | 1007.0 |
| 20260506113223 | 22 | 170 | 16.1 | 0.0 | 0.00 | 0.00 | 0.00 | 40 | 1007.0 |
| 20260506112108 | 22 | 180 | 14.5 | 0.0 | 0.00 | 0.00 | 0.00 | 40 | |
| 20260506110225 | 22 | 190 | 19.3 | 0.0 | 0.00 | 0.00 | 0.00 | 40 | 1007.0 |
| 20260506103223 | 22 | 180 | 12.9 | 0.0 | 0.00 | 0.00 | 0.00 | 43 | 1007.0 |
| 20260506102309 | 22 | 200 | 19.3 | 0.0 | 0.00 | 0.00 | 0.00 | 43 | |
| 20260506100229 | 22 | 180 | 19.3 | 0.0 | 0.00 | 0.00 | 0.00 | 43 | 1008.0 |
| 20260506093224 | 21 | 170 | 14.5 | 0.0 | 0.00 | 0.00 | 0.00 | 46 | 1008.0 |
| 20260506092050 | 21 | 200 | 14.5 | 0.0 | 0.00 | 0.00 | 0.00 | 46 | |
| 20260506090227 | 21 | 200 | 11.3 | 0.0 | 0.00 | 0.00 | 0.00 | 46 | 1008.0 |
| 20260506083223 | 20 | 210 | 14.5 | 0.0 | 0.00 | 0.00 | 0.00 | 52 | 1008.0 |
| 20260506082107 | 18 | 240 | 14.5 | 0.0 | 0.00 | 0.00 | 0.00 | 55 | |
| 20260506080234 | 18 | 240 | 12.9 | 0.0 | 0.00 | 0.00 | 0.00 | 55 | 1008.0 |
| 20260506073223 | 18 | 230 | 12.9 | 0.0 | 0.00 | 0.00 | 0.00 | 55 | 1008.0 |
| 20260506072109 | 17 | 220 | 14.5 | 0.0 | 0.00 | 0.00 | 0.00 | 59 | |
| 20260506070233 | 17 | 220 | 14.5 | 0.0 | 0.00 | 0.00 | 0.00 | 59 | 1008.0 |
| 20260506062140 | 16 | 200 | 8.0 | 0.0 | 0.00 | 0.00 | 0.00 | 63 | |
| 20260506060226 | 16 | 200 | 8.0 | 0.0 | 0.00 | 0.00 | 0.00 | 67 | 1008.0 |
| 20260506050232 | 12 | 110 | 8.0 | 0.0 | 0.00 | 0.00 | 0.00 | 71 | 1008.0 |
| 20260506043217 | 12 | 110 | 9.7 | 0.0 | 0.00 | 0.00 | 0.00 | 71 | 1007.0 |
| 20260506042322 | 12 | 80 | 3.2 | 0.0 | 0.00 | 0.00 | 0.00 | 71 | |
| 20260506040227 | 12 | 0 | 3.2 | 0.0 | 0.00 | 0.00 | 0.00 | 71 | 1007.0 |
| 20260506033304 | 11 | 0 | 4.8 | 0.0 | 0.00 | 0.00 | 0.00 | 76 | 1007.0 |
| 20260506032108 | 12 | 90 | 8.0 | 0.0 | 0.00 | 0.00 | 0.00 | 66 | |
| 20260506030227 | 12 | 90 | 4.8 | 0.0 | 0.00 | 0.00 | 0.00 | 66 | 1006.0 |
| 20260506023216 | 12 | 0 | 0.0 | 0.0 | 0.00 | 0.00 | 0.00 | 66 | 1007.0 |
| 20260506022108 | 12 | 190 | 3.2 | 0.0 | 0.00 | 0.00 | 0.00 | 66 |